Location: *
(49.2333°S, 177.3500°W)
Time: 19:24:20
(UTC+00:00)

Daily predictions for brighter satellites

Satellite Brightness Start Highest point End
(mag) Time Altitude Azimuth Time Altitude Azimuth Time Altitude Azimuth
ATLAS 2AS CENTAUR R/B 4.3 14:40:28 22° S 14:40:28 22° S 14:43:46 10° SE
SL-16 R/B 3.7 14:33:44 10° SSE 14:37:43 38° SE 14:37:43 38° SE
ATLAS 5 CENTAUR R/B 3.3 14:56:51 47° SE 14:56:51 47° SE 15:01:03 10° SE
USA 229 DEB 4.5 15:05:01 40° S 15:06:47 48° SE 15:13:23 10° ENE
USA 229 4.5 15:05:04 40° S 15:06:53 48° SE 15:13:29 10° ENE
Cosmos 1655 Rocket 4.2 15:21:31 69° ENE 15:21:42 69° E 15:28:06 10° SSE
Lacrosse 5 3.3 15:29:23 33° ENE 15:29:23 33° ENE 15:33:40 10° ESE
Cosmos 2058 Rocket 4.5 15:32:19 38° SE 15:32:19 38° SE 15:35:35 10° SSE
Cosmos 1943 Rocket 4.2 15:38:58 17° SSW 15:38:58 17° SSW 15:41:19 10° S
CZ-2C R/B 3.3 15:33:41 10° NE 15:38:09 45° ESE 15:42:47 10° S
IDEFIX/ARIANE 42P 3.1 15:36:06 10° NNE 15:42:42 52° S 15:46:46 10° S
Cosmos 1428 Rocket 4.4 15:43:09 70° SSW 15:43:09 70° SSW 15:48:45 10° S
Cosmos 2297 Rocket 4.1 15:47:32 17° NNE 15:47:32 17° NNE 15:48:43 10° NNE
SeaSat 1 4.4 15:54:16 10° S 15:56:11 17° SSW 15:56:11 17° SSW
Okean-O 3.1 15:53:44 10° NNE 15:58:09 60° ESE 16:02:37 10° S
Cosmos 1777 Rocket 4.3 16:00:39 54° SSW 16:00:39 54° SSW 16:05:01 10° SSE
Cosmos 2278 3.9 16:00:50 42° N 16:02:47 69° ENE 16:08:32 10° SSE
COSMOS 2455 3.2 16:04:30 48° NNW 16:04:30 48° NNW 16:09:07 10° NNE
CZ-4 R/B 4.5 16:03:05 10° E 16:05:03 13° ESE 16:07:02 10° SSE
Cosmos 2112 Rocket 3.9 16:04:59 72° SW 16:05:30 80° WNW 16:10:54 10° NNE
BREEZE-M (TANK) 3.6 16:07:39 36° E 16:07:39 36° E 16:09:05 10° E
Lacrosse 4 Rocket 3.8 16:03:37 10° NNE 16:07:05 23° ENE 16:10:31 10° ESE
Cosmos 2369 Rocket 4.4 16:07:49 12° SSW 16:07:49 12° SSW 16:09:40 10° S
Cosmos 1980 Rocket 3.8 16:02:44 10° NNE 16:07:47 33° ENE 16:12:54 10° SE
Cosmos 1697 Rocket 3.2 16:06:41 22° N 16:10:19 57° ENE 16:15:54 10° SE
Cosmos 1680 Rocket 3.8 16:15:51 48° NNW 16:15:51 48° NNW 16:19:58 10° N
Cosmos 2263 Rocket 3.8 16:15:16 10° SSW 16:20:16 32° SE 16:25:15 10° ENE
MSX 3.7 16:17:21 10° N 16:23:07 77° WNW 16:28:59 10° SSW
SL-16 R/B 3.4 16:17:49 10° S 16:22:48 32° SW 16:22:48 32° SW
NOAA 6 4.0 16:18:47 10° N 16:23:56 58° W 16:29:10 10° SSW
Cosmos 1953 2.8 16:22:13 12° N 16:25:56 60° E 16:29:58 10° SSE
USA 234 3.2 16:19:16 10° ESE 16:25:57 84° NNE 16:29:13 33° NW
Cosmos 1818 3.4 16:24:10 39° SW 16:26:14 81° NW 16:31:37 10° NNE
SJ-12 4.1 16:24:11 10° NNE 16:28:22 74° ESE 16:32:37 10° S
Meteor 1-22 Rocket 4.1 16:28:09 50° W 16:28:49 54° WSW 16:34:06 10° S
Cosmos 1805 4.3 16:30:58 33° SSW 16:30:58 33° SSW 16:33:26 10° S
Meteor 1-21 Rocket 4.2 16:24:09 10° SSW 16:29:53 86° ESE 16:35:29 10° NNE
S3M 4.5 16:24:48 10° SSW 16:38:26 - NNW 16:30:06 38° WSW
ATLAS 2AS CENTAUR R/B 4.2 16:27:55 13° SSW 16:31:49 23° SSE 16:36:43 10° ESE
Cosmos 883 Rocket 4.5 16:29:30 10° SSW 16:35:50 62° W 16:42:06 10° N
CZ-3 R/B 4.3 16:25:59 12° NW 16:36:15 20° NNW 16:41:53 10° NNE
Cosmos 1626 4.1 16:32:53 10° S 16:36:19 30° ESE 16:39:42 10° NE
BREEZE-M DEB (TANK) 3.8 16:28:31 22° WSW 16:36:52 80° SSE 16:40:51 10° ENE
Cosmos 1656 3.6 16:36:57 37° NW 16:39:07 64° WSW 16:44:38 10° SSE
ATLAS 5 CENTAUR R/B 3.2 16:38:25 31° WSW 16:40:09 36° SSW 16:45:38 10° SE
Cosmos 2315 Rocket 4.0 16:36:13 10° SSW 16:42:39 71° W 16:49:00 10° N
Feng Yun 1-1 Rocket 4.4 16:38:55 10° N 16:44:10 45° W 16:49:26 10° SSW
Cosmos 2227 4.3 16:38:26 10° SSW 16:44:17 81° ESE 16:50:02 10° NNE
Intercosmos 25 Rocket 4.2 16:38:39 10° S 16:44:27 63° ESE 16:48:12 10° NNE
Cosmos 1758 3.4 16:49:49 32° NW 16:51:29 56° WSW 16:55:37 10° S
ATLAS 5 CENTAUR R/B 3.1 16:41:26 10° SW 16:53:56 61° WNW 16:57:45 10° NNE
Cosmos 2369 3.9 16:51:43 28° WNW 16:54:28 51° SW 17:00:08 10° SSE
Cosmos 1076 Rocket 3.8 16:51:10 10° S 16:55:30 67° ESE 16:59:47 10° NNE
USA 229 DEB 3.8 16:52:31 17° SW 16:57:56 56° WNW 17:04:31 10° NNE
USA 229 3.8 16:52:34 17° SW 16:58:02 56° WNW 17:04:38 10° NNE
Cosmos 1484 Rocket 2.7 16:54:50 10° NNE 16:58:43 83° W 17:02:43 10° SSW
NOSS 3-1 (C) 3.3 16:54:12 12° SW 17:00:20 80° NW 17:06:08 10° NE
NOSS 3-1 (A) 3.5 16:54:26 10° SW 17:01:09 80° SE 17:07:00 10° NE
Cosmos 158 Rocket 4.3 16:59:22 10° SSW 17:04:18 65° ESE 17:09:13 10° NNE
SL-14 R/B 3.3 17:00:45 10° SSW 17:04:48 65° W 17:08:50 10° N
Cosmos 1812 Rocket 3.5 17:01:30 10° NNW 17:05:54 65° WSW 17:10:19 10° S
Cosmos 1244 Rocket 4.5 17:01:53 10° N 17:08:14 83° W 17:14:42 10° S
CSL-04 Rocket 3.8 17:03:32 10° NNE 17:08:57 79° ESE 17:14:23 10° SSW
Cosmos 1733 3.6 17:06:32 19° NW 17:09:02 42° WSW 17:12:48 10° S
Cosmos 2058 Rocket 4.4 17:09:39 23° WSW 17:09:39 23° WSW 17:13:05 10° SSW
Cosmos 2266 Rocket 4.4 17:03:24 10° NW 17:09:25 42° WSW 17:15:34 10° S
Lacrosse 5 1.9 17:08:36 23° WNW 17:11:48 69° SSW 17:16:59 10° SE
Ariane Rocket 3.4 17:08:50 10° NNE 17:13:56 68° ESE 17:19:06 10° S
Cosmos 1898 Rocket 3.5 17:09:48 10° NNW 17:15:08 67° WSW 17:20:34 10° SSE
Cosmos 2360 4.2 17:09:52 10° NNW 17:15:38 85° WSW 17:21:29 10° SSE
CZ-2C R/B 3.3 17:12:45 10° NNW 17:16:38 25° W 17:20:38 10° SW
Elektron 3 4.2 17:17:02 22° SW 17:19:02 70° NW 17:24:04 10° NE
Cosmos 1745 Rocket 4.4 17:14:27 10° N 17:20:47 70° E 17:27:14 10° SSE
IDEFIX/ARIANE 42P 4.2 17:17:58 10° NW 17:23:35 15° WSW 17:25:15 10° SW
Cosmos 967 Rocket 4.4 17:15:21 10° NW 17:21:38 84° SW 17:27:58 10° SE
Cosmos 1937 Rocket 3.4 17:21:07 10° NNW 17:26:17 72° WSW 17:31:34 10° SSE
Nadezhda 1 Rocket 4.1 17:20:56 10° S 17:27:22 88° E 17:33:36 10° N
Cosmos 1470 3.5 17:27:38 10° NW 17:31:13 32° WSW 17:34:50 10° S
SJ 16-02 2.6 17:27:08 10° N 17:31:24 46° ENE 17:35:43 10° SSE
Cosmos 2285 Rocket 4.0 17:26:15 10° SSW 17:32:41 75° WNW 17:39:05 10° NNE
Okean-O 4.0 17:31:59 10° NW 17:35:01 18° W 17:38:06 10° SW
BREEZE M DEB (TANK) 3.6 17:27:41 10° WNW 17:35:50 64° NNE 17:38:43 10° E
Meteor 1-28 Rocket 3.2 17:32:14 10° S 17:36:00 58° WSW 17:39:42 10° NNW
AQUARIUS 4.3 17:33:01 10° N 17:37:28 54° W 17:42:00 10° SSW
Cosmos 1867 3.6 17:33:25 10° NW 17:38:51 87° NE 17:44:19 10° SE
CZ-4 R/B 1.3 17:35:31 10° N 17:39:34 76° WNW 17:43:35 10° SSW
SL-24 DEB 4.5 17:36:08 10° S 17:40:39 48° WSW 17:45:08 10° NNW
Cosmos 990 Rocket 4.1 17:37:32 10° NW 17:42:43 55° WSW 17:47:58 10° SSE
Cosmos 1766 Rocket 3.6 17:39:32 10° SSW 17:44:08 73° W 17:48:38 10° N
METEOR-M 4.1 17:39:12 10° N 17:44:34 69° WNW 17:50:01 10° SSW
SMAP 3.4 17:40:25 10° N 17:44:56 46° W 17:49:31 10° SSW
Lacrosse 4 Rocket 1.7 17:41:12 10° NW 17:45:31 51° SW 17:49:46 10° SSE
Cosmos 1328 4.1 17:42:15 10° SSW 17:46:06 43° W 17:49:54 10° NNW
USA 161 2.1 17:46:01 10° S 17:48:12 27° WSW 17:50:31 10° NW
Cosmos 2360 Rocket 4.4 17:44:25 10° NNE 17:49:20 31° ENE 17:54:18 10° SE
FENGYUN 3A 3.7 17:44:39 10° NNE 17:50:07 89° WNW 17:55:40 10° SSW
Cosmos 1980 Rocket 2.5 17:46:05 10° NW 17:51:38 49° SW 17:57:14 10° SSE
Cosmos 2150 Rocket 4.1 17:47:12 10° NW 17:52:29 60° WSW 17:57:45 10° SSE
Cosmos 1697 Rocket 3.5 17:49:35 10° WNW 17:54:37 31° SW 17:59:41 10° SSE
BREEZE-M DEB (TANK) 3.0 17:53:14 11° W 17:55:36 43° NNW 18:01:22 10° NE
GP-B 3.3 17:53:09 10° NNW 17:57:33 55° W 18:02:02 10° S
CZ-2C R/B 4.2 17:53:07 10° SSE 17:57:40 67° ENE 18:02:07 10° N
Cosmos 1500 Rocket 4.4 17:54:33 10° S 17:58:55 56° ESE 18:03:13 10° NNE
Cosmos 2298 Rocket 4.3 17:54:13 10° NW 17:59:23 49° WSW 18:04:37 10° SSE
CZ-4 R/B 4.5 17:55:23 10° N 17:59:35 66° W 18:03:50 10° SSW
Okean 3 Rocket 4.4 17:57:32 10° SSW 18:01:27 30° W 18:05:21 10° NNW
Cosmos 1844 Rocket 3.9 17:56:21 10° SSW 18:01:41 41° SE 18:06:58 10° ENE
Cosmos 1709 Rocket 4.5 17:55:31 10° N 18:01:54 72° E 18:08:18 10° SSE
Cosmos 1953 4.0 18:00:23 10° W 18:02:47 15° WSW 18:05:12 10° SSW
YAOGAN 1 2.6 17:58:30 10° N 18:02:50 63° WNW 18:07:14 10° SSW
SL-16 R/B 2.4 17:57:57 10° NNW 18:03:41 85° ENE 18:09:27 10° SSE
Cosmos 2263 Rocket 2.3 17:59:01 10° SW 18:04:31 55° WNW 18:09:58 10° N
Cosmos 1908 3.6 18:01:47 10° N 18:05:39 71° E 18:09:34 10° SSE
NOAA 12 4.2 18:00:29 10° NNE 18:05:50 87° WNW 18:11:18 10° SSW
COSMO-SKYMED 1 2.8 18:02:54 10° SSE 18:07:22 83° ENE 18:11:46 10° NNW
USA 234 3.6 18:02:21 10° ESE 18:08:44 53° SSW 18:15:07 10° W
